#datint,netname,site,siteID,timestamp,IntT,BattV,AirT2,AirT,AirT_Avg,AirT_Max,AirT_Min,RH_Avg,RH_Max,RH_Min,EA_Avg,Td_Avg,Td_Max,Td_Min,WindS_Smp,WindS_Avg,WindD_Avg,WindD_SD,WindS_Max,ETo,ETr,SoilT4,SoilT8,SoilVWC8,SolarW_Avg,wetstate_Avg,wetT_Avg,Precip_accum,Precip_WPG,Precip_TB
15min,AgWx,beryljct,423,26MAY2019:00:00:00,40.9,12.95,36.9,37.3,39.6,43.0,37.2,73,79,63,0.598,31.6,32.2,30.8,2.828,2.3,197,8.1,3.2,-0.00008,-0.00009,53.3,52.9,11,0,.,.,15.67,0.01,0.00
15min,AgWx,beryljct,423,26MAY2019:00:15:00,40.2,12.94,42.2,39.0,38.1,39.6,36.9,77,81,73,0.610,31.6,32.0,31.3,1.841,2.2,211,8.4,3.0,-0.00010,-0.00011,53.1,52.9,11,0,.,.,15.67,0.00,0.00
15min,AgWx,beryljct,423,26MAY2019:00:30:00,39.6,12.93,38.6,39.6,38.8,40.0,37.5,75,79,72,0.608,31.7,32.2,31.3,2.543,2.4,199,6.5,2.9,-0.00008,-0.00010,52.9,52.9,11,0,.,.,15.66,0.00,0.00
15min,AgWx,beryljct,423,26MAY2019:00:45:00,39.2,12.91,37.9,37.2,38.4,39.5,37.0,76,79,74,0.593,31.5,32.2,31.0,2.653,2.3,197,1.7,2.8,-0.00009,-0.00010,52.7,52.9,11,0,.,.,15.67,0.00,0.00
15min,AgWx,beryljct,423,26MAY2019:01:00:00,38.7,12.91,37.3,38.5,38.0,40.0,35.6,75,82,68,0.583,30.7,31.4,30.1,2.806,2.6,194,5.8,3.5,-0.00007,-0.00008,52.5,52.8,11,0,.,.,15.67,0.00,0.00
15min,AgWx,beryljct,423,26MAY2019:01:15:00,38.3,12.89,36.6,37.0,36.9,38.3,35.9,79,83,74,0.578,31.0,31.6,30.5,2.499,2.6,200,5.0,3.5,-0.00008,-0.00009,52.3,52.8,11,0,.,.,15.67,0.00,0.00
15min,AgWx,beryljct,423,26MAY2019:01:30:00,37.9,12.89,36.4,36.3,36.5,37.1,35.9,79,81,77,0.580,30.7,31.0,30.5,2.039,2.0,212,6.5,2.5,-0.00011,-0.00013,52.1,52.8,11,0,.,.,15.67,0.00,0.00
15min,AgWx,beryljct,423,26MAY2019:01:45:00,37.6,12.88,37.7,37.0,36.8,37.8,36.2,78,81,74,0.575,30.5,30.9,30.1,1.447,1.4,208,5.6,2.3,-0.00013,-0.00018,51.9,52.8,11,0,.,.,15.67,0.00,0.00
15min,AgWx,beryljct,423,26MAY2019:02:00:00,37.3,12.87,37.2,35.6,36.4,37.7,35.1,78,82,74,0.572,30.1,30.6,29.8,1.732,1.4,195,49,3.9,-0.00013,-0.00018,51.7,52.7,11,0,.,.,15.67,0.00,0.00
15min,AgWx,beryljct,423,26MAY2019:02:15:00,36.7,12.85,33.9,33.7,34.6,35.8,33.6,82,85,78,0.558,29.5,30.5,28.6,0.417,0.9,33,34,2.5,-0.00016,-0.00023,51.5,52.7,11,0,.,.,15.67,0.00,0.00
15min,AgWx,beryljct,423,26MAY2019:02:30:00,36.1,12.86,34.8,35.2,34.5,35.7,33.7,83,85,79,0.554,29.9,30.6,29.3,1.315,1.1,328,24,2.4,-0.00016,-0.00022,51.4,52.7,11,0,.,.,15.67,0.00,0.00
15min,AgWx,beryljct,423,26MAY2019:02:45:00,35.8,12.85,34.8,34.5,35.4,36.2,34.2,81,84,80,0.568,30.1,30.9,29.3,3.201,2.1,353,22,3.6,-0.00011,-0.00013,51.2,52.6,11,0,.,.,15.67,0.00,0.00
15min,AgWx,beryljct,423,26MAY2019:03:00:00,35.4,12.85,33.2,33.9,34.5,35.0,33.9,85,87,82,0.552,30.3,30.9,29.5,0.614,1.2,357,7.1,2.9,-0.00015,-0.00021,51.0,52.5,11,0,.,.,15.67,0.00,0.00
15min,AgWx,beryljct,423,26MAY2019:03:15:00,34.8,12.84,33.0,32.8,32.6,33.8,31.6,89,92,84,0.570,29.7,30.4,29.2,0,0.5,7.4,1.8,1.7,-0.00018,-0.00027,50.8,52.5,11,0,.,.,15.67,0.00,0.00
15min,AgWx,beryljct,423,26MAY2019:03:30:00,34.4,12.83,33.5,32.7,32.9,34.2,31.6,87,90,85,0.554,29.5,30.6,28.4,4.253,2.1,332,8.0,4.8,-0.00011,-0.00014,50.7,52.4,11,0,.,.,15.67,0.01,0.00
15min,AgWx,beryljct,423,26MAY2019:03:45:00,34.2,12.83,33.7,33.0,33.1,33.8,32.4,86,89,85,0.563,29.5,30.0,28.8,2.148,3.0,324,13,5.2,-0.00008,-0.00010,50.5,52.4,11,0,.,.,15.67,0.00,0.00
15min,AgWx,beryljct,423,26MAY2019:04:00:00,34.0,12.82,33.0,33.0,33.7,34.5,33.0,86,89,85,0.556,30.0,30.6,29.6,1.6,2.1,303,8.5,2.7,-0.00011,-0.00014,50.3,52.3,11,0,.,.,15.67,0.00,0.00
15min,AgWx,beryljct,423,26MAY2019:04:15:00,34.0,12.82,34.8,35.1,34.1,35.8,32.6,83,89,77,0.540,29.4,30.0,28.7,2.192,4.0,326,7.5,6.9,-0.00005,-0.00005,50.2,52.3,11,0,.,.,15.67,0.00,0.00
15min,AgWx,beryljct,423,26MAY2019:04:30:00,34.0,12.81,32.8,34.9,34.7,35.5,33.9,80,82,78,0.552,29.1,29.7,28.5,0,0.8,299,34,2.8,-0.00017,-0.00024,50.0,52.2,11,0,.,.,15.67,0.00,0.00
15min,AgWx,beryljct,423,26MAY2019:04:45:00,33.6,12.8,33.3,32.9,32.1,34.7,31.0,86,90,80,0.537,28.3,29.7,27.7,0,1.2,243,8.0,3.6,-0.00014,-0.00019,49.9,52.1,11,0,.,.,15.67,0.00,0.00
15min,AgWx,beryljct,423,26MAY2019:05:00:00,33.1,12.81,30.9,31.1,32.2,33.2,31.1,87,90,83,0.521,28.6,29.6,27.5,2.477,1.8,225,3.8,2.9,-0.00012,-0.00016,49.7,52.1,11,0,.,.,15.67,0.00,0.00
15min,AgWx,beryljct,423,26MAY2019:05:15:00,32.7,12.81,31.3,31.7,31.3,32.1,30.6,89,91,87,0.529,28.5,29.1,27.9,2.28,2.0,207,4.3,3.0,-0.00012,-0.00015,49.6,52.0,11,0,.,.,15.67,0.00,0.00
15min,AgWx,beryljct,423,26MAY2019:05:30:00,32.3,12.8,30.3,30.1,31.1,32.1,30.1,89,91,87,0.514,28.2,29.1,27.6,2.455,2.2,150,28,3.2,0.00005,0.00008,49.4,51.9,11,0,.,.,15.67,0.00,0.00
15min,AgWx,beryljct,423,26MAY2019:05:45:00,31.9,12.79,30.3,30.0,29.9,30.4,29.2,92,93,91,0.518,27.7,28.3,27.0,2.105,2.5,171,18,3.4,0.00004,0.00006,49.3,51.9,11,0,.,.,15.67,0.00,0.00
15min,AgWx,beryljct,423,26MAY2019:06:00:00,31.6,12.8,31.9,31.9,31.2,32.6,29.7,89,93,86,0.524,28.5,29.3,27.3,3.858,3.3,180,7.7,5.1,0.00006,0.00010,49.1,51.8,11,0,.,.,15.67,0.00,0.00
15min,AgWx,beryljct,423,26MAY2019:06:15:00,31.4,12.78,30.9,30.4,31.0,32.0,29.9,88,90,86,0.516,27.7,28.4,26.8,2.521,1.3,183,27,3.9,0.00004,0.00006,48.9,51.8,11,1,.,.,15.67,0.00,0.00
15min,AgWx,beryljct,423,26MAY2019:06:30:00,31.1,12.78,31.4,31.2,30.8,31.9,29.7,89,90,86,0.515,27.9,28.6,27.0,0,1.2,329,5.4,3.5,0.00005,0.00007,48.8,51.7,11,5,.,.,15.67,0.00,0.00
15min,AgWx,beryljct,423,26MAY2019:06:45:00,31.0,12.81,32.6,31.9,31.3,31.9,31.0,88,90,87,0.528,28.2,28.8,27.7,0,0.3,335,0.0,1.3,0.00013,0.00014,48.7,51.6,11,28,.,.,15.67,0.00,0.00
15min,AgWx,beryljct,423,26MAY2019:07:00:00,31.4,12.83,33.9,33.6,32.7,33.6,32.0,86,87,85,0.565,29.1,30.1,28.4,0,0.5,327,5.6,1.3,0.00031,0.00034,48.5,51.6,11,71,.,.,15.67,0.00,0.00
15min,AgWx,beryljct,423,26MAY2019:07:15:00,33.1,12.81,34.0,34.1,33.7,34.1,33.3,87,90,84,0.597,30.3,31.5,29.2,0,0.4,230,36,1.5,0.00043,0.00047,48.4,51.5,11,106,.,.,15.67,0.00,0.00
15min,AgWx,beryljct,423,26MAY2019:07:30:00,35.2,12.82,38.1,37.5,35.4,37.5,33.9,89,92,84,0.636,32.5,33.6,31.1,0.636,0.1,208,0.2,0.6,0.00054,0.00057,48.3,51.5,11,127,.,.,15.67,0.00,0.00
15min,AgWx,beryljct,423,26MAY2019:07:45:00,37.7,12.82,40.3,40.3,38.8,40.3,37.5,84,87,80,0.718,34.5,36.0,32.7,2.126,1.2,128,86,2.1,0.00087,0.00095,48.1,51.4,11,208,.,.,15.67,0.00,0.00
15min,AgWx,beryljct,423,26MAY2019:08:00:00,40.5,12.85,43.3,43.0,41.8,43.4,40.2,78,84,66,0.643,35.4,37.0,32.7,2.981,2.3,25,25,3.4,0.00115,0.00129,48.0,51.3,11,259,.,.,15.67,0.00,0.00
15min,AgWx,beryljct,423,26MAY2019:08:15:00,42.9,12.87,44.5,44.3,43.4,44.3,42.8,70,73,66,0.687,34.2,35.7,33.1,3.047,3.0,340,7.3,4.0,0.00143,0.00165,47.9,51.2,11,308,.,.,15.67,0.00,0.00
15min,AgWx,beryljct,423,26MAY2019:08:30:00,45.3,12.89,46.0,46.1,45.2,46.2,44.3,66,69,61,0.683,34.5,36.4,33.0,5.546,3.8,337,12,5.5,0.00172,0.00202,47.7,51.2,11,357,.,.,15.67,0.00,0.00
15min,AgWx,beryljct,423,26MAY2019:08:45:00,47.7,12.96,48.0,47.7,47.1,47.9,46.1,64,67,60,0.690,35.5,37.3,33.8,6.16,4.9,322,10,7.4,0.00202,0.00240,47.7,51.1,11,404,.,.,15.66,0.00,0.00
15min,AgWx,beryljct,423,26MAY2019:09:00:00,49.8,13.11,49.6,50.1,48.6,50.1,47.7,60,63,57,0.766,35.3,37.7,34.2,5.13,5.4,331,11,7.8,0.00236,0.00281,47.6,51.0,11,460,.,.,15.66,0.00,0.00
15min,AgWx,beryljct,423,26MAY2019:09:15:00,52.0,13.34,52.6,52.5,50.9,52.5,49.6,53,61,48,0.702,34.4,37.3,33.1,3.771,3.9,334,39,6.8,0.00273,0.00320,47.5,51.0,11,509,.,.,15.66,0.00,0.00
15min,AgWx,beryljct,423,26MAY2019:09:30:00,54.6,13.7,56.0,55.9,53.9,56.0,52.3,48,52,43,0.731,34.8,37.4,33.0,4.976,2.4,30,77,9.1,0.00311,0.00354,47.5,50.9,11,558,.,.,15.66,0.00,0.00
15min,AgWx,beryljct,423,26MAY2019:09:45:00,57.3,14.35,58.9,58.9,57.7,59.0,55.9,43,51,36,0.664,35.3,39.1,31.7,10.85,7.8,172,28,14.3,0.00371,0.00465,47.4,50.8,11,596,.,.,15.66,0.00,0.00
15min,AgWx,beryljct,423,26MAY2019:10:00:00,59.0,14.3,59.5,59.0,58.7,59.0,58.3,36,39,35,0.610,32.2,33.8,30.6,12.28,13.5,183,14,18.6,0.00435,0.00581,47.4,50.8,11,652,.,.,15.65,0.00,0.00
15min,AgWx,beryljct,423,26MAY2019:10:15:00,60.3,14.28,58.9,59.0,59.1,59.5,58.9,35,37,34,0.592,31.8,33.2,30.6,17.52,14.8,186,13,19.3,0.00461,0.00619,47.4,50.7,11,689,.,.,15.65,0.00,0.00
15min,AgWx,beryljct,423,26MAY2019:10:30:00,61.1,14.31,60.0,59.4,59.3,59.7,59.0,34,37,33,0.588,31.2,33.2,30.0,12.14,16.9,191,11,21.9,0.00492,0.00667,47.5,50.6,11,741,.,.,15.64,0.00,0.00
15min,AgWx,beryljct,423,26MAY2019:10:45:00,61.7,14.3,59.8,60.1,60.0,60.5,59.5,34,37,32,0.601,31.9,33.6,29.8,14.84,15.1,195,10,21.2,0.00511,0.00678,47.5,50.6,11,783,.,.,15.64,0.00,0.00
15min,AgWx,beryljct,423,26MAY2019:11:00:00,62.3,14.25,60.7,60.5,60.5,61.5,59.9,33,36,31,0.580,31.5,33.5,29.3,14.29,14.6,188,12,21.5,0.00535,0.00705,47.6,50.5,11,823,.,.,15.64,0.00,0.00
15min,AgWx,beryljct,423,26MAY2019:11:15:00,62.9,14.21,60.7,60.6,60.6,61.1,59.9,33,37,30,0.562,31.5,33.6,29.2,13.61,14.6,181,15,21.2,0.00554,0.00726,47.7,50.5,11,865,.,.,15.63,0.00,0.00
15min,AgWx,beryljct,423,26MAY2019:11:30:00,63.3,14.25,62.2,61.8,61.1,61.8,60.6,31,34,29,0.636,30.7,33.0,28.8,11.62,16.4,190,12,21.7,0.00578,0.00767,47.8,50.4,11,891,.,.,15.63,0.00,0.00
15min,AgWx,beryljct,423,26MAY2019:11:45:00,63.7,14.22,61.5,61.2,61.1,62.2,60.2,32,35,29,0.599,31.2,33.8,28.4,14.49,14.3,176,17,22.1,0.00571,0.00745,47.9,50.4,11,887,.,.,15.63,0.00,0.00
15min,AgWx,beryljct,423,26MAY2019:12:00:00,64.0,13.9,61.5,61.9,61.1,61.9,60.2,32,35,30,0.578,31.0,33.2,29.3,23.41,15.6,176,15,23.9,0.00608,0.00791,48.1,50.4,11,975,.,.,15.63,0.00,0.00
15min,AgWx,beryljct,423,26MAY2019:12:15:00,64.4,13.78,61.8,63.0,62.3,63.1,61.7,31,33,29,0.604,31.1,33.7,28.9,22.45,15.6,190,12,22.5,0.00631,0.00823,48.2,50.3,11,989,.,.,15.62,0.00,0.00
15min,AgWx,beryljct,423,26MAY2019:12:30:00,65.0,13.87,61.7,63.2,62.7,63.7,62.0,31,34,28,0.612,31.5,34.5,28.8,17.84,13.9,180,15,22.3,0.00663,0.00847,48.4,50.3,11,1059,.,.,15.62,0.00,0.00
15min,AgWx,beryljct,423,26MAY2019:12:45:00,65.5,13.79,62.9,63.2,62.7,63.7,61.6,30,34,28,0.613,31.1,34.5,28.7,15.06,14.2,190,16,21.7,0.00630,0.00815,48.7,50.3,11,974,.,.,15.62,0.00,0.00
15min,AgWx,beryljct,423,26MAY2019:13:00:00,66.0,13.77,62.4,62.6,63.2,63.8,62.6,30,33,27,0.619,31.2,33.8,28.7,12.43,15.8,193,14,22.5,0.00675,0.00877,48.9,50.3,11,1059,.,.,15.62,0.00,0.00
15min,AgWx,beryljct,423,26MAY2019:13:15:00,66.2,13.74,62.9,62.5,62.5,63.6,61.3,30,33,28,0.538,30.9,32.7,28.7,17.36,14.2,175,17,22.4,0.00574,0.00754,49.2,50.3,11,845,.,.,15.62,0.00,0.00
15min,AgWx,beryljct,423,26MAY2019:13:30:00,66.2,13.77,62.6,62.5,62.3,62.8,61.2,30,34,27,0.580,30.6,33.3,28.0,9.89,13.3,187,19,21.0,0.00556,0.00730,49.5,50.3,11,813,.,.,15.62,0.00,0.00
15min,AgWx,beryljct,423,26MAY2019:13:45:00,66.4,13.75,61.9,62.4,62.9,63.9,62.1,28,32,26,0.517,29.6,33.5,27.6,13.9,14.7,188,17,23.7,0.00585,0.00776,49.8,50.3,11,851,.,.,15.62,0.00,0.00
15min,AgWx,beryljct,423,26MAY2019:14:00:00,66.5,13.75,61.9,61.9,62.8,64.2,61.9,28,31,26,0.534,29.2,31.3,26.9,14.75,14.0,178,14,22.3,0.00552,0.00737,50.1,50.3,11,771,.,.,15.62,0.00,0.00
15min,AgWx,beryljct,423,26MAY2019:14:15:00,66.7,13.75,63.2,63.9,63.1,64.3,61.9,27,29,26,0.553,28.7,30.1,27.2,12.96,16.6,189,15,23.4,0.00640,0.00851,50.4,50.4,11,968,.,.,15.62,0.00,0.00
15min,AgWx,beryljct,423,26MAY2019:14:30:00,67.0,13.75,63.3,64.0,63.7,64.2,62.9,28,31,26,0.585,29.7,32.2,27.5,17.3,17.3,196,16,27.7,0.00621,0.00835,50.8,50.4,11,901,.,.,15.62,0.00,0.00
15min,AgWx,beryljct,423,26MAY2019:14:45:00,66.8,13.77,61.5,61.9,63.0,64.7,61.8,27,29,25,0.499,28.8,31.2,27.1,20.61,17.9,198,13,26.3,0.00550,0.00763,51.1,50.5,11,738,.,.,15.62,0.00,0.00
15min,AgWx,beryljct,423,26MAY2019:15:00:00,66.5,13.79,61.8,61.4,62.6,63.7,61.2,28,30,25,0.547,29.0,31.4,26.0,8.57,16.4,198,16,24.9,0.00512,0.00711,51.4,50.6,11,658,.,.,15.62,0.00,0.00
15min,AgWx,beryljct,423,26MAY2019:15:15:00,66.0,13.76,61.8,62.2,61.9,62.5,61.3,29,32,27,0.573,29.2,32.5,27.4,16.27,15.8,193,15,22.4,0.00470,0.00656,51.8,50.7,11,603,.,.,15.63,0.00,0.00
15min,AgWx,beryljct,423,26MAY2019:15:30:00,65.8,13.74,61.7,63.2,62.5,64.1,61.0,30,33,27,0.585,30.6,33.4,28.3,17.01,15.8,202,15,22.5,0.00538,0.00729,52.1,50.7,11,768,.,.,15.62,0.00,0.00
15min,AgWx,beryljct,423,26MAY2019:15:45:00,66.1,13.77,63.9,63.1,62.8,63.9,61.9,28,32,25,0.638,29.0,33.1,27.0,15.45,17.1,199,12,24.3,0.00555,0.00762,52.4,50.8,11,798,.,.,15.62,0.00,0.00
15min,AgWx,beryljct,423,26MAY2019:16:00:00,66.2,13.74,61.3,61.7,62.3,63.8,61.3,32,33,30,0.599,31.9,34.3,30.1,18.22,17.8,214,12,27.4,0.00555,0.00755,52.7,50.9,11,818,.,.,15.63,0.00,0.00
15min,AgWx,beryljct,423,26MAY2019:16:15:00,65.2,13.78,59.4,59.6,60.0,61.6,59.6,33,35,31,0.596,31.0,32.3,29.5,15.81,15.8,213,12,23.1,0.00368,0.00536,53.0,51.0,11,406,.,.,15.63,0.00,0.00
15min,AgWx,beryljct,423,26MAY2019:16:30:00,64.0,13.84,59.2,59.1,59.4,59.6,58.9,34,36,32,0.602,31.2,32.7,29.6,16.59,15.8,211,14,23.1,0.00349,0.00511,53.2,51.2,11,385,.,.,15.63,0.01,0.00
15min,AgWx,beryljct,423,26MAY2019:16:45:00,63.0,13.85,58.0,58.5,58.6,59.2,58.3,38,41,35,0.634,33.0,34.8,31.4,11.55,15.3,211,15,20.9,0.00321,0.00468,53.4,51.2,11,363,.,.,15.63,0.00,0.00
15min,AgWx,beryljct,423,26MAY2019:17:00:00,61.6,13.89,56.7,56.6,56.9,58.4,56.0,39,41,37,0.610,32.4,33.8,31.2,16.11,14.9,187,26,30.4,0.00245,0.00378,53.6,51.3,11,181,.,.,15.63,0.00,0.00
15min,AgWx,beryljct,423,26MAY2019:17:15:00,60.4,13.9,57.7,57.7,57.0,57.8,56.5,39,41,36,0.591,32.2,33.3,31.0,14.99,13.4,189,19,23.2,0.00243,0.00370,53.8,51.4,11,210,.,.,15.63,0.00,0.00
15min,AgWx,beryljct,423,26MAY2019:17:30:00,60.0,13.89,57.4,57.4,57.4,57.7,57.2,38,41,36,0.611,32.1,33.9,31.0,16.11,15.7,206,12,25.1,0.00268,0.00411,53.9,51.5,11,248,.,.,15.64,0.00,0.00
15min,AgWx,beryljct,423,26MAY2019:17:45:00,59.7,13.87,56.8,56.9,57.0,57.5,56.5,38,40,37,0.583,31.9,33.1,30.7,16.31,16.3,207,14,22.3,0.00263,0.00406,54.0,51.6,11,247,.,.,15.63,0.00,0.00
15min,AgWx,beryljct,423,26MAY2019:18:00:00,59.3,13.91,55.7,55.8,56.3,56.9,55.8,39,43,37,0.655,31.7,33.8,30.8,6.84,12.6,199,14,21.5,0.00214,0.00332,54.0,51.8,11,183,.,.,15.64,0.00,0.00
15min,AgWx,beryljct,423,26MAY2019:18:15:00,58.8,13.9,56.1,56.5,56.4,56.9,55.7,39,43,37,0.623,32.0,33.8,30.8,8.59,11.5,195,12,18.2,0.00200,0.00311,54.1,51.9,11,202,.,.,15.64,0.00,0.00
15min,AgWx,beryljct,423,26MAY2019:18:30:00,59.1,13.88,58.2,58.7,57.5,59.0,56.4,36,40,33,0.565,31.0,32.7,29.6,12.52,12.4,189,15,18.5,0.00273,0.00400,54.1,51.9,11,361,.,.,15.63,0.00,0.00
15min,AgWx,beryljct,423,26MAY2019:18:45:00,60.3,13.8,59.3,59.7,58.8,59.8,58.2,34,36,32,0.568,30.3,31.7,29.0,14.62,13.5,178,14,20.0,0.00339,0.00486,54.1,52.0,11,461,.,.,15.63,0.00,0.00
15min,AgWx,beryljct,423,26MAY2019:19:00:00,61.6,13.79,59.8,59.7,59.7,60.5,59.2,34,36,32,0.592,31.1,32.4,29.3,20.39,11.9,183,15,20.4,0.00330,0.00467,54.1,52.1,11,447,.,.,15.63,0.00,0.00
15min,AgWx,beryljct,423,26MAY2019:19:15:00,62.1,13.79,58.2,58.3,58.9,59.8,58.3,35,38,33,0.598,31.4,32.8,30.3,12.34,13.9,186,12,19.3,0.00282,0.00426,54.1,52.2,11,330,.,.,15.64,0.00,0.00
15min,AgWx,beryljct,423,26MAY2019:19:30:00,62.0,13.41,57.4,57.7,58.2,58.6,57.7,37,39,36,0.616,32.2,33.5,31.3,12.52,12.8,193,9.9,19.3,0.00254,0.00383,54.0,52.2,11,307,.,.,15.64,0.00,0.00
15min,AgWx,beryljct,423,26MAY2019:19:45:00,60.6,13.3,55.1,55.6,56.2,57.7,55.5,40,43,38,0.589,32.4,33.9,30.9,10.13,12.9,199,13,21.9,0.00145,0.00259,54.0,52.3,11,96,.,.,15.64,0.00,0.00
15min,AgWx,beryljct,423,26MAY2019:20:00:00,58.8,13.2,53.9,54.5,54.8,55.6,54.4,42,43,40,0.612,32.0,32.6,31.4,7.497,11.5,191,11,16.0,0.00071,0.00085,54.0,52.3,11,58,.,.,15.64,0.00,0.00
15min,AgWx,beryljct,423,26MAY2019:20:15:00,57.3,13.17,53.6,53.5,54.0,54.5,53.5,44,47,42,0.649,32.6,33.7,31.8,7.98,10.4,191,10,15.2,0.00060,0.00073,54.0,52.4,11,30,.,.,15.64,0.00,0.00
15min,AgWx,beryljct,423,26MAY2019:20:30:00,56.1,13.13,52.4,52.6,53.2,53.7,52.5,47,50,44,0.661,33.3,34.5,32.4,5.502,7.3,201,13,12.0,0.00046,0.00058,53.9,52.5,11,25,.,.,15.64,0.00,0.00
15min,AgWx,beryljct,423,26MAY2019:20:45:00,55.1,13.09,51.9,51.8,52.2,52.8,51.7,52,55,48,0.717,35.0,36.1,33.8,4.911,4.9,191,8.4,8.2,0.00026,0.00036,53.9,52.5,11,7,.,.,15.64,0.01,0.00
15min,AgWx,beryljct,423,26MAY2019:21:00:00,54.4,13.08,49.9,50.5,51.8,52.4,50.5,54,59,49,0.739,35.6,36.9,33.7,14.64,12.0,206,14,24.4,0.00045,0.00054,53.9,52.5,11,1,.,.,15.64,0.00,0.00
15min,AgWx,beryljct,423,26MAY2019:21:15:00,53.2,13.06,49.5,49.4,49.5,50.5,49.2,60,61,59,0.712,36.3,36.9,35.7,9.03,13.0,210,11,20.4,0.00038,0.00045,53.8,52.6,11,0,.,.,15.65,0.00,0.00
15min,AgWx,beryljct,423,26MAY2019:21:30:00,51.7,13.06,47.8,47.4,48.4,49.5,47.2,68,75,59,0.828,38.2,39.8,35.7,5.568,8.4,179,17,16.9,0.00022,0.00028,53.7,52.6,11,0,.,.,15.65,0.00,0.00
15min,AgWx,beryljct,423,26MAY2019:21:45:00,50.4,13.05,47.5,47.2,47.3,47.9,46.8,74,76,70,0.824,39.4,39.8,38.4,3.223,4.1,182,11,6.8,0.00006,0.00009,53.7,52.7,11,0,.,.,15.65,0.00,0.00
15min,AgWx,beryljct,423,26MAY2019:22:00:00,49.4,13.04,46.9,46.7,46.9,47.4,46.5,76,78,74,0.814,39.7,40.3,39.2,2.433,2.9,171,8.9,4.8,-0.00000,0.00001,53.6,52.7,11,0,.,.,15.65,0.01,0.00
15min,AgWx,beryljct,423,26MAY2019:22:15:00,48.3,13.03,44.8,45.0,45.8,46.8,45.0,78,81,74,0.797,39.2,39.8,38.5,3.88,3.5,161,12,5.3,0.00001,0.00003,53.5,52.7,11,0,.,.,15.65,0.00,0.00
15min,AgWx,beryljct,423,26MAY2019:22:30:00,47.1,13.02,44.9,44.1,43.8,45.0,43.3,81,82,76,0.750,38.2,38.8,37.1,6.379,4.5,148,6.6,7.5,0.00002,0.00004,53.4,52.7,11,0,.,.,15.66,0.00,0.00
15min,AgWx,beryljct,423,26MAY2019:22:45:00,46.3,13.01,43.6,43.5,44.2,44.8,43.5,75,78,73,0.750,36.8,37.2,36.6,3.88,6.2,145,9.4,11.5,0.00010,0.00013,53.3,52.7,11,0,.,.,15.66,0.00,0.00
15min,AgWx,beryljct,423,26MAY2019:23:00:00,45.6,13,42.4,42.5,43.3,43.6,42.5,79,82,78,0.756,37.3,37.5,37.1,2.433,3.4,151,9.0,4.9,0.00000,0.00002,53.2,52.7,11,0,.,.,15.66,0.00,0.00
15min,AgWx,beryljct,423,26MAY2019:23:15:00,44.6,12.99,41.4,41.9,42.9,43.9,41.9,80,82,76,0.736,37.1,37.5,36.7,3.244,2.0,149,4.4,3.2,-0.00005,-0.00006,53.1,52.8,11,0,.,.,15.66,0.00,0.00
15min,AgWx,beryljct,423,26MAY2019:23:30:00,43.7,12.98,42.0,41.9,42.9,44.1,41.7,78,82,74,0.716,36.4,37.1,35.8,2.938,3.7,155,9.3,6.3,0.00002,0.00004,53.0,52.7,11,0,.,.,15.66,0.00,0.00
15min,AgWx,beryljct,423,26MAY2019:23:45:00,42.9,12.97,38.6,38.6,41.2,43.4,38.6,80,85,76,0.672,35.5,36.8,34.1,1.863,2.9,184,14,5.0,-0.00002,-0.00001,52.8,52.7,11,0,.,.,15.66,0.00,0.00
15min,AgWx,beryljct,423,27MAY2019:00:00:00,41.9,12.96,38.9,40.4,39.9,41.2,38.6,82,86,79,0.682,34.9,35.7,34.4,1.863,1.8,190,7.1,2.9,-0.00006,-0.00008,52.7,52.8,11,0,.,.,15.66,0.00,0.00
15min,AgWx,beryljct,423,27MAY2019:00:15:00,41.1,12.94,42.1,41.1,39.8,41.2,38.8,81,84,79,0.696,34.6,35.5,33.3,2.543,2.2,193,13,3.5,-0.00004,-0.00005,52.6,52.7,11,0,.,.,15.67,0.01,0.00
15min,AgWx,beryljct,423,27MAY2019:00:30:00,40.8,12.94,40.0,39.0,41.3,42.9,38.5,79,86,75,0.691,35.2,35.9,33.8,2.631,2.9,149,27,3.5,-0.00001,-0.00001,52.4,52.7,11,0,.,.,15.66,0.00,0.00
15min,AgWx,bigpiney,439,26MAY2019:00:00:00,44.5,12.73,40.2,40.6,40.8,41.3,40.3,84,86,83,0.734,36.3,37.0,35.9,1.885,2.6,153,15,3.9,-0.00011,-0.00013,47.0,42.2,55,0,0,0.0,2.59,0.00,0.00
15min,AgWx,bigpiney,439,26MAY2019:00:15:00,43.9,12.72,40.1,39.9,40.1,40.5,39.8,88,89,86,0.727,36.7,37.1,36.4,1.71,2.0,187,9.3,2.5,-0.00014,-0.00018,47.0,42.3,55,0,0,0.0,2.59,0.00,0.00
15min,AgWx,bigpiney,439,26MAY2019:00:30:00,43.4,12.72,39.0,38.8,39.6,40.2,38.5,89,91,87,0.728,36.5,37.0,35.8,2.17,1.4,226,25,2.7,-0.00016,-0.00022,47.0,42.3,55,0,0,0.0,2.59,0.00,0.00
15min,AgWx,bigpiney,439,26MAY2019:00:45:00,42.9,12.71,37.7,37.5,37.8,38.8,37.4,91,92,90,0.690,35.5,36.5,35.0,5.305,3.5,302,26,5.3,-0.00010,-0.00012,46.9,42.3,55,0,1,0.0,2.59,0.00,0.00
15min,AgWx,bigpiney,439,26MAY2019:01:00:00,42.3,12.7,36.7,36.4,36.9,37.5,36.4,91,92,91,0.666,34.6,35.1,34.1,3.442,4.4,316,12,5.7,-0.00008,-0.00009,46.8,42.3,55,0,1,0.0,2.59,0.00,0.00
15min,AgWx,bigpiney,439,26MAY2019:01:15:00,41.6,12.69,36.6,36.0,36.3,36.6,35.9,92,93,92,0.666,34.3,34.7,33.9,5.437,3.9,356,18,5.5,-0.00009,-0.00011,46.8,42.2,55,0,1,0.0,2.59,0.00,0.00
15min,AgWx,bigpiney,439,26MAY2019:01:30:00,40.9,12.68,35.8,35.7,35.7,36.0,35.4,93,94,93,0.660,33.9,34.3,33.6,3.42,3.7,314,13,5.7,-0.00010,-0.00012,46.7,42.3,55,0,1,0.0,2.59,0.00,0.00
15min,AgWx,bigpiney,439,26MAY2019:01:45:00,40.4,12.67,35.2,35.1,35.6,35.8,35.1,93,93,92,0.637,33.8,34.0,33.1,3.047,3.3,327,26,4.6,-0.00011,-0.00013,46.6,42.3,55,0,1,0.0,2.59,0.00,0.00
15min,AgWx,bigpiney,439,26MAY2019:02:00:00,39.9,12.67,35.6,36.0,35.8,36.4,34.9,92,93,90,0.645,33.7,34.3,32.9,2.083,3.3,273,17,4.5,-0.00010,-0.00012,46.6,42.3,55,0,1,0.0,2.59,0.00,0.00
15min,AgWx,bigpiney,439,26MAY2019:02:15:00,39.5,12.66,36.6,35.4,35.8,36.4,34.9,90,92,89,0.640,33.2,34.0,32.1,1.425,2.3,272,17,3.3,-0.00012,-0.00016,46.5,42.3,55,0,1,0.0,2.59,0.00,0.00
15min,AgWx,bigpiney,439,26MAY2019:02:30:00,39.2,12.65,35.8,35.6,36.1,36.8,35.6,90,92,88,0.631,33.4,34.5,32.7,3.661,3.1,303,9.9,4.4,-0.00010,-0.00012,46.4,42.4,55,0,1,0.0,2.59,0.00,0.00
15min,AgWx,bigpiney,439,26MAY2019:02:45:00,38.9,12.64,37.2,37.3,36.2,37.4,35.4,89,91,85,0.644,33.3,33.8,32.7,3.288,3.5,287,5.5,4.5,-0.00009,-0.00010,46.3,42.3,55,0,1,0.0,2.59,0.00,0.00
15min,AgWx,bigpiney,439,26MAY2019:03:00:00,38.9,12.63,37.7,37.1,36.5,37.2,36.0,87,88,85,0.649,32.9,33.6,32.4,3.858,3.5,290,4.3,4.3,-0.00008,-0.00009,46.2,42.3,55,0,1,0.0,2.59,0.00,0.00
15min,AgWx,bigpiney,439,26MAY2019:03:15:00,38.9,12.62,37.0,36.8,37.1,37.5,36.7,86,87,85,0.641,33.3,33.7,33.0,5.152,4.3,305,5.6,5.7,-0.00006,-0.00006,46.1,42.4,55,0,0,0.0,2.59,0.00,0.00
15min,AgWx,bigpiney,439,26MAY2019:03:30:00,38.9,12.62,36.9,36.6,36.6,36.8,36.4,87,87,86,0.632,33.0,33.2,32.9,4.582,4.6,300,5.7,5.6,-0.00006,-0.00006,46.0,42.4,55,0,0,0.0,2.59,0.00,0.00
15min,AgWx,bigpiney,439,26MAY2019:03:45:00,38.8,12.61,36.4,36.4,36.2,36.6,35.8,87,88,86,0.629,32.6,32.9,32.3,2.455,4.6,292,10,5.8,-0.00006,-0.00006,45.9,42.4,55,0,0,0.0,2.59,0.00,0.00
15min,AgWx,bigpiney,439,26MAY2019:04:00:00,38.5,12.6,33.2,33.8,34.9,36.2,33.1,87,91,85,0.587,31.6,32.6,29.5,3.968,2.9,227,38,5.8,-0.00010,-0.00012,45.8,42.4,55,0,0,0.0,2.59,0.00,0.00
15min,AgWx,bigpiney,439,26MAY2019:04:15:00,38.0,12.59,32.0,31.9,32.7,33.8,31.9,91,92,89,0.556,30.3,31.0,29.7,2.938,3.9,218,7.5,4.7,-0.00008,-0.00009,45.7,42.3,55,0,0,0.0,2.59,0.00,0.00
15min,AgWx,bigpiney,439,26MAY2019:04:30:00,37.3,12.57,33.0,32.7,32.2,32.8,31.8,92,93,91,0.583,30.2,31.1,29.7,3.464,3.4,223,6.9,4.1,-0.00009,-0.00011,45.7,42.3,55,0,0,0.0,2.59,0.00,0.00
15min,AgWx,bigpiney,439,26MAY2019:04:45:00,36.7,12.56,31.6,31.8,32.4,32.9,31.8,92,93,91,0.550,30.3,31.0,29.4,3.069,2.6,207,18,4.3,-0.00011,-0.00014,45.6,42.4,55,0,1,0.0,2.59,0.00,0.00
15min,AgWx,bigpiney,439,26MAY2019:05:00:00,36.2,12.56,31.4,31.0,31.2,31.8,31.0,92,92,91,0.540,29.1,29.8,28.7,5.283,3.8,220,11,5.3,-0.00008,-0.00010,45.5,42.3,55,0,1,0.0,2.59,0.00,0.00
15min,AgWx,bigpiney,439,26MAY2019:05:15:00,35.8,12.55,32.0,31.7,31.5,31.9,31.0,93,93,92,0.557,29.6,30.0,29.0,4.231,4.6,224,4.3,5.4,-0.00007,-0.00008,45.4,42.3,55,0,1,0.0,2.59,0.00,0.00
15min,AgWx,bigpiney,439,26MAY2019:05:30:00,35.6,12.54,33.4,33.0,32.4,33.1,31.7,92,93,92,0.587,30.5,31.1,29.7,4.077,5.2,225,5.7,6.9,-0.00007,-0.00007,45.3,42.3,55,0,0,0.0,2.59,0.00,0.00
15min,AgWx,bigpiney,439,26MAY2019:05:45:00,35.6,12.54,33.3,33.0,32.9,33.1,32.8,92,92,92,0.584,30.8,31.1,30.7,4.582,4.7,228,6.8,5.5,-0.00007,-0.00008,45.2,42.3,55,2,0,0.0,2.59,0.00,0.00
15min,AgWx,bigpiney,439,26MAY2019:06:00:00,35.7,12.54,33.8,33.7,33.5,33.9,33.0,92,92,91,0.598,31.4,31.7,30.9,3.814,4.0,242,5.9,5.6,-0.00008,-0.00009,45.1,42.2,55,5,0,0.0,2.59,0.00,0.00
15min,AgWx,bigpiney,439,26MAY2019:06:15:00,35.9,12.55,34.2,33.8,33.5,33.8,33.4,92,92,91,0.604,31.4,31.7,31.2,3.332,4.0,234,5.0,4.8,-0.00017,-0.00015,45.0,42.3,55,18,0,0.0,2.59,0.00,0.00
15min,AgWx,bigpiney,439,26MAY2019:06:30:00,36.2,12.57,35.6,35.1,34.5,35.1,33.8,91,92,90,0.624,32.3,32.6,31.7,4.494,4.6,248,9.5,6.4,-0.00008,-0.00004,44.9,42.2,55,40,0,0.0,2.59,0.00,0.00
15min,AgWx,bigpiney,439,26MAY2019:06:45:00,36.6,12.59,36.1,35.8,35.6,35.9,35.2,89,90,89,0.636,32.8,33.1,32.6,2.762,5.0,260,7.2,7.3,0.00009,0.00016,44.8,42.2,55,57,0,0.0,2.59,0.00,0.00
15min,AgWx,bigpiney,439,26MAY2019:07:00:00,37.1,12.65,36.2,36.1,36.0,36.5,35.6,90,90,89,0.641,33.3,33.8,32.9,2.587,2.4,309,33,3.6,0.00019,0.00023,44.7,42.2,55,70,0,0.0,2.59,0.00,0.00